Terug naar catalogus

STARLINK-11560

ActiefCommunicatieVLEO
NORAD 62917·PAYLOAD·🇺🇸 United States

Gelanceerd Feb 8, 2025 vanaf Cape Canaveral Space Force Station

Loading…

Volgende Passages (komende 24 uur)

TLE

VersSource: CelesTrak SupGP

Epoch: Sep 15, 2026, 03:42 UTC

1 62917C 25027L   26258.15465278  .00039655  00000+0  30782-3 0  2580
2 62917  43.0004 285.5871 0001543 251.5003 356.2494 15.70833098    11

Volg STARLINK-11560 in realtime met AllMySat

Download on the App Store